Back to catalog

STARLINK-30469

AliveCommunicationsVLEO
NORAD 57896·PAYLOAD·🇺🇸 United States

Launched Sep 20, 2023 from Cape Canaveral Space Force Station

Loading…

Next Passes (next 24 hours)

TLE

FreshSource: CelesTrak SupGP

Epoch: Sep 15, 2026, 03:16 UTC

1 57896C 23146F   26258.13659722 -.00072461  00000+0 -26277-2 0  2584
2 57896  43.0019 324.2806 0001344 260.7763 328.8770 15.27574925    15

Track STARLINK-30469 in real time with AllMySat

Download on the App Store